Year,Month,Day,Hour,Minute,Value (Times are PST for temperature in C)
2009,02,09,00,00,4.80
2009,02,09,00,01,4.90
2009,02,09,00,02,4.90
2009,02,09,00,03,5.00
2009,02,09,00,04,5.00
2009,02,09,00,05,5.10
2009,02,09,00,06,5.10
2009,02,09,00,07,5.10
2009,02,09,00,08,5.10
2009,02,09,00,09,5.10
2009,02,09,00,10,5.20
2009,02,09,00,11,5.20
2009,02,09,00,12,5.20
2009,02,09,00,13,5.20
2009,02,09,00,14,5.20
2009,02,09,00,15,5.20
2009,02,09,00,16,5.20
2009,02,09,00,17,5.10
2009,02,09,00,18,5.10
2009,02,09,00,19,5.10
2009,02,09,00,20,5.10
2009,02,09,00,21,5.10
2009,02,09,00,22,5.10
2009,02,09,00,23,5.10
2009,02,09,00,24,5.10
2009,02,09,00,25,5.10
2009,02,09,00,26,5.10
2009,02,09,00,27,5.10
2009,02,09,00,28,5.10
2009,02,09,00,29,5.10
2009,02,09,00,30,5.10
2009,02,09,00,31,5.10
2009,02,09,00,32,5.10
2009,02,09,00,33,5.10
2009,02,09,00,34,5.10
2009,02,09,00,35,5.10
2009,02,09,00,36,5.20
2009,02,09,00,37,5.10
2009,02,09,00,38,5.10
2009,02,09,00,39,5.10
2009,02,09,00,40,5.10
2009,02,09,00,41,5.10
2009,02,09,00,42,5.10
2009,02,09,00,43,5.10
2009,02,09,00,44,5.10
2009,02,09,00,45,5.10
2009,02,09,00,46,5.10
2009,02,09,00,47,5.10
2009,02,09,00,48,5.10
2009,02,09,00,49,5.10
2009,02,09,00,50,5.10
2009,02,09,00,51,5.10
2009,02,09,00,52,5.10
2009,02,09,00,53,5.10
2009,02,09,00,54,5.10
2009,02,09,00,55,5.10
2009,02,09,00,56,5.10
2009,02,09,00,57,5.10
2009,02,09,00,58,5.10
2009,02,09,00,59,5.10
2009,02,09,01,00,5.10
2009,02,09,01,01,5.10
2009,02,09,01,02,5.10
2009,02,09,01,03,5.10
2009,02,09,01,04,5.10
2009,02,09,01,05,5.10
2009,02,09,01,06,5.10
2009,02,09,01,07,5.10
2009,02,09,01,08,5.10
2009,02,09,01,09,5.10
2009,02,09,01,10,5.10
2009,02,09,01,11,5.10
2009,02,09,01,12,5.10
2009,02,09,01,13,5.20
2009,02,09,01,14,5.20
2009,02,09,01,15,5.20
2009,02,09,01,16,5.20
2009,02,09,01,17,5.20
2009,02,09,01,18,5.20
2009,02,09,01,19,5.20
2009,02,09,01,20,5.10
2009,02,09,01,21,5.10
2009,02,09,01,22,5.10
2009,02,09,01,23,5.10
2009,02,09,01,24,5.10
2009,02,09,01,25,5.10
2009,02,09,01,26,5.10
2009,02,09,01,27,5.10
2009,02,09,01,28,5.10
2009,02,09,01,29,5.10
2009,02,09,01,30,5.10
2009,02,09,01,31,5.10
2009,02,09,01,32,5.10
2009,02,09,01,33,5.10
2009,02,09,01,34,5.10
2009,02,09,01,35,5.10
2009,02,09,01,36,5.10
2009,02,09,01,37,5.10
2009,02,09,01,38,5.10
2009,02,09,01,39,5.10
2009,02,09,01,40,5.00
2009,02,09,01,41,4.90
2009,02,09,01,42,4.90
2009,02,09,01,43,4.80
2009,02,09,01,44,4.80
2009,02,09,01,45,4.70
2009,02,09,01,46,4.70
2009,02,09,01,47,4.60
2009,02,09,01,48,4.60
2009,02,09,01,49,4.50
2009,02,09,01,50,4.40
2009,02,09,01,51,4.40
2009,02,09,01,52,4.30
2009,02,09,01,53,4.30
2009,02,09,01,54,4.30
2009,02,09,01,55,4.30
2009,02,09,01,56,4.20
2009,02,09,01,57,4.20
2009,02,09,01,58,4.20
2009,02,09,01,59,4.10
2009,02,09,02,00,4.10
2009,02,09,02,01,4.10
2009,02,09,02,02,4.00
2009,02,09,02,03,4.00
2009,02,09,02,04,3.90
2009,02,09,02,05,3.90
2009,02,09,02,06,3.80
2009,02,09,02,07,3.80
2009,02,09,02,08,3.80
2009,02,09,02,09,3.80
2009,02,09,02,10,3.80
2009,02,09,02,11,3.70
2009,02,09,02,12,3.70
2009,02,09,02,13,3.70
2009,02,09,02,14,3.70
2009,02,09,02,15,3.70
2009,02,09,02,16,3.60
2009,02,09,02,17,3.60
2009,02,09,02,18,3.60
2009,02,09,02,19,3.60
2009,02,09,02,20,3.50
2009,02,09,02,21,3.50
2009,02,09,02,22,3.50
2009,02,09,02,23,3.50
2009,02,09,02,24,3.50
2009,02,09,02,25,3.50
2009,02,09,02,26,3.50
2009,02,09,02,27,3.40
2009,02,09,02,28,3.40
2009,02,09,02,29,3.40
2009,02,09,02,30,3.40
2009,02,09,02,31,3.40
2009,02,09,02,32,3.40
2009,02,09,02,33,3.40
2009,02,09,02,34,3.40
2009,02,09,02,35,3.40
2009,02,09,02,36,3.40
2009,02,09,02,37,3.40
2009,02,09,02,38,3.30
2009,02,09,02,39,3.30
2009,02,09,02,40,3.30
2009,02,09,02,41,3.30
2009,02,09,02,42,3.30
2009,02,09,02,43,3.30
2009,02,09,02,44,3.30
2009,02,09,02,45,3.30
2009,02,09,02,46,3.30
2009,02,09,02,47,3.30
2009,02,09,02,48,3.30
2009,02,09,02,49,3.30
2009,02,09,02,50,3.30
2009,02,09,02,51,3.20
2009,02,09,02,52,3.20
2009,02,09,02,53,3.20
2009,02,09,02,54,3.20
2009,02,09,02,55,3.20
2009,02,09,02,56,3.20
2009,02,09,02,57,3.20
2009,02,09,02,58,3.20
2009,02,09,02,59,3.20
2009,02,09,03,00,3.10
2009,02,09,03,01,3.10
2009,02,09,03,02,3.10
2009,02,09,03,03,3.10
2009,02,09,03,04,3.10
2009,02,09,03,05,3.10
2009,02,09,03,06,3.00
2009,02,09,03,07,3.00
2009,02,09,03,08,3.00
2009,02,09,03,09,2.90
2009,02,09,03,10,2.90
2009,02,09,03,11,2.90
2009,02,09,03,12,2.90
2009,02,09,03,13,2.90
2009,02,09,03,14,2.90
2009,02,09,03,15,2.80
2009,02,09,03,16,2.80
2009,02,09,03,17,2.80
2009,02,09,03,18,2.80
2009,02,09,03,19,2.80
2009,02,09,03,20,2.70
2009,02,09,03,21,2.70
2009,02,09,03,22,2.70
2009,02,09,03,23,2.60
2009,02,09,03,24,2.60
2009,02,09,03,25,2.50
2009,02,09,03,26,2.50
2009,02,09,03,27,2.40
2009,02,09,03,28,2.40
2009,02,09,03,29,2.30
2009,02,09,03,30,2.30
2009,02,09,03,31,2.30
2009,02,09,03,32,2.30
2009,02,09,03,33,2.30
2009,02,09,03,34,2.30
2009,02,09,03,35,2.30
2009,02,09,03,36,2.30
2009,02,09,03,37,2.30
2009,02,09,03,38,2.30
2009,02,09,03,39,2.30
2009,02,09,03,40,2.30
2009,02,09,03,41,2.30
2009,02,09,03,42,2.20
2009,02,09,03,43,2.20
2009,02,09,03,44,2.10
2009,02,09,03,45,2.00
2009,02,09,03,46,1.90
2009,02,09,03,47,1.90
2009,02,09,03,48,1.80
2009,02,09,03,49,1.70
2009,02,09,03,50,1.70
2009,02,09,03,51,1.70
2009,02,09,03,52,1.60
2009,02,09,03,53,1.60
2009,02,09,03,54,1.50
2009,02,09,03,55,1.50
2009,02,09,03,56,1.40
2009,02,09,03,57,1.30
2009,02,09,03,58,1.30
2009,02,09,03,59,1.30
2009,02,09,04,00,1.30
2009,02,09,04,01,1.30
2009,02,09,04,02,1.30
2009,02,09,04,03,1.30
2009,02,09,04,05,1.20
2009,02,09,04,06,1.20
2009,02,09,04,07,1.10
2009,02,09,04,11,0.90
2009,02,09,04,14,0.80
2009,02,09,04,15,0.80
2009,02,09,04,17,0.70
2009,02,09,04,20,0.70
2009,02,09,04,21,0.70
2009,02,09,04,23,0.60
2009,02,09,04,24,0.60
2009,02,09,04,26,0.70
2009,02,09,04,29,0.60
2009,02,09,04,32,0.40
2009,02,09,04,33,0.40
2009,02,09,04,35,0.30
2009,02,09,04,37,0.30
2009,02,09,04,38,0.30
2009,02,09,04,39,0.30
2009,02,09,04,40,0.20
2009,02,09,04,41,0.20
2009,02,09,04,42,0.20
2009,02,09,04,43,0.20
2009,02,09,04,44,0.20
2009,02,09,04,45,0.20
2009,02,09,04,46,0.20
2009,02,09,04,48,0.20
2009,02,09,04,49,0.20
2009,02,09,04,51,0.20
2009,02,09,04,52,0.20
2009,02,09,04,53,0.10
2009,02,09,04,54,0.10
2009,02,09,04,55,0.10
2009,02,09,04,56,0.10
2009,02,09,04,57,0.10
2009,02,09,04,58,0.20
2009,02,09,04,59,0.10
2009,02,09,05,00,0.10
2009,02,09,05,01,0.10
2009,02,09,05,02,0.10
2009,02,09,05,03,0.00
2009,02,09,05,04,0.00
2009,02,09,05,06,-0.10
2009,02,09,05,08,-0.10
2009,02,09,05,09,-0.10
2009,02,09,05,10,-0.10
2009,02,09,05,11,-0.20
2009,02,09,05,12,-0.20
2009,02,09,05,13,-0.20
2009,02,09,05,14,-0.20
2009,02,09,05,15,-0.30
2009,02,09,05,16,-0.30
2009,02,09,05,17,-0.30
2009,02,09,05,18,-0.30
2009,02,09,05,19,-0.30
2009,02,09,05,20,-0.30
2009,02,09,05,21,-0.30
2009,02,09,05,22,-0.30
2009,02,09,05,23,-0.40
2009,02,09,05,24,-0.40
2009,02,09,05,25,-0.40
2009,02,09,05,26,-0.40
2009,02,09,05,27,-0.40
2009,02,09,05,28,-0.50
2009,02,09,05,29,-0.50
2009,02,09,05,30,-0.40
2009,02,09,05,31,-0.40
2009,02,09,05,32,-0.40
2009,02,09,05,33,-0.40
2009,02,09,05,34,-0.40
2009,02,09,05,35,-0.40
2009,02,09,05,36,-0.40
2009,02,09,05,37,-0.50
2009,02,09,05,38,-0.50
2009,02,09,05,39,-0.50
2009,02,09,05,40,-0.50
2009,02,09,05,41,-0.50
2009,02,09,05,42,-0.60
2009,02,09,05,43,-0.60
2009,02,09,05,44,-0.60
2009,02,09,05,45,-0.60
2009,02,09,05,46,-0.60
2009,02,09,05,47,-0.60
2009,02,09,05,48,-0.50
2009,02,09,05,49,-0.40
2009,02,09,05,50,-0.40
2009,02,09,05,51,-0.30
2009,02,09,05,52,-0.20
2009,02,09,05,53,0.00
2009,02,09,05,54,0.00
2009,02,09,05,55,0.10
2009,02,09,05,56,0.30
2009,02,09,05,57,0.50
2009,02,09,05,58,0.80
2009,02,09,05,59,0.90
2009,02,09,06,00,1.10
2009,02,09,06,01,1.20
2009,02,09,06,02,1.30
2009,02,09,06,03,1.40
2009,02,09,06,04,1.50
2009,02,09,06,05,1.70
2009,02,09,06,06,1.70
2009,02,09,06,07,1.80
2009,02,09,06,08,1.80
2009,02,09,06,09,1.90
2009,02,09,06,10,1.90
2009,02,09,06,11,1.90
2009,02,09,06,12,2.00
2009,02,09,06,13,2.20
2009,02,09,06,14,2.50
2009,02,09,06,15,2.70
2009,02,09,06,16,2.80
2009,02,09,06,17,2.80
2009,02,09,06,18,2.90
2009,02,09,06,19,3.00
2009,02,09,06,20,3.00
2009,02,09,06,21,3.00
2009,02,09,06,22,3.00
2009,02,09,06,23,3.00
2009,02,09,06,24,3.10
2009,02,09,06,25,3.20
2009,02,09,06,26,3.20
2009,02,09,06,27,3.20
2009,02,09,06,28,3.30
2009,02,09,06,29,3.30
2009,02,09,06,30,3.30
2009,02,09,06,31,3.30
2009,02,09,06,32,3.30
2009,02,09,06,33,3.20
2009,02,09,06,34,3.30
2009,02,09,06,35,3.30
2009,02,09,06,36,3.20
2009,02,09,06,37,3.20
2009,02,09,06,38,3.20
2009,02,09,06,39,3.20
2009,02,09,06,40,3.20
2009,02,09,06,41,3.20
2009,02,09,06,42,3.20
2009,02,09,06,43,3.30
2009,02,09,06,44,3.30
2009,02,09,06,45,3.20
2009,02,09,06,46,3.20
2009,02,09,06,47,3.20
2009,02,09,06,48,3.20
2009,02,09,06,49,3.20
2009,02,09,06,50,3.20
2009,02,09,06,51,3.20
2009,02,09,06,52,3.20
2009,02,09,06,53,3.20
2009,02,09,06,54,3.20
2009,02,09,06,55,3.20
2009,02,09,06,56,3.20
2009,02,09,06,57,3.20
2009,02,09,06,58,3.20
2009,02,09,06,59,3.20
2009,02,09,07,00,3.20
2009,02,09,07,01,3.20
2009,02,09,07,02,3.20
2009,02,09,07,03,3.20
2009,02,09,07,04,3.20
2009,02,09,07,05,3.10
2009,02,09,07,06,3.10
2009,02,09,07,07,3.10
2009,02,09,07,08,3.10
2009,02,09,07,09,3.20
2009,02,09,07,10,3.20
2009,02,09,07,11,3.10
2009,02,09,07,12,3.10
2009,02,09,07,13,3.10
2009,02,09,07,14,3.10
2009,02,09,07,15,3.10
2009,02,09,07,16,3.10
2009,02,09,07,17,3.10
2009,02,09,07,18,3.10
2009,02,09,07,19,3.10
2009,02,09,07,20,3.00
2009,02,09,07,21,3.00
2009,02,09,07,22,3.00
2009,02,09,07,23,3.00
2009,02,09,07,24,2.90
2009,02,09,07,25,2.90
2009,02,09,07,26,2.90
2009,02,09,07,27,2.90
2009,02,09,07,28,2.90
2009,02,09,07,29,2.90
2009,02,09,07,30,2.80
2009,02,09,07,31,2.80
2009,02,09,07,32,2.80
2009,02,09,07,33,2.80
2009,02,09,07,34,2.80
2009,02,09,07,35,2.80
2009,02,09,07,36,2.80
2009,02,09,07,37,2.80
2009,02,09,07,38,2.80
2009,02,09,07,39,2.80
2009,02,09,07,40,2.80
2009,02,09,07,41,2.80
2009,02,09,07,42,2.70
2009,02,09,07,43,2.70
2009,02,09,07,44,2.70
2009,02,09,07,45,2.70
2009,02,09,07,46,2.70
2009,02,09,07,47,2.60
2009,02,09,07,48,2.60
2009,02,09,07,49,2.60
2009,02,09,07,50,2.60
2009,02,09,07,51,2.60
2009,02,09,07,52,2.60
2009,02,09,07,53,2.60
2009,02,09,07,54,2.60
2009,02,09,07,55,2.50
2009,02,09,07,56,2.60
2009,02,09,07,57,2.50
2009,02,09,07,58,2.50
2009,02,09,07,59,2.50
2009,02,09,08,00,2.50
2009,02,09,08,01,2.50
2009,02,09,08,02,2.50
2009,02,09,08,03,2.50
2009,02,09,08,04,2.50
2009,02,09,08,05,2.50
2009,02,09,08,06,2.50
2009,02,09,08,07,2.50
2009,02,09,08,08,2.50
2009,02,09,08,09,2.50
2009,02,09,08,10,2.50
2009,02,09,08,11,2.50
2009,02,09,08,12,2.60
2009,02,09,08,13,2.60
2009,02,09,08,14,2.60
2009,02,09,08,15,2.60
2009,02,09,08,16,2.60
2009,02,09,08,17,2.70
2009,02,09,08,18,2.70
2009,02,09,08,19,2.70
2009,02,09,08,20,2.70
2009,02,09,08,21,2.80
2009,02,09,08,22,2.80
2009,02,09,08,23,2.70
2009,02,09,08,24,2.70
2009,02,09,08,25,2.70
2009,02,09,08,26,2.80
2009,02,09,08,27,2.80
2009,02,09,08,28,2.80
2009,02,09,08,29,2.80
2009,02,09,08,30,2.80
2009,02,09,08,31,2.80
2009,02,09,08,32,2.80
2009,02,09,08,33,2.80
2009,02,09,08,34,2.90
2009,02,09,08,35,2.90
2009,02,09,08,36,2.90
2009,02,09,08,37,2.90
2009,02,09,08,38,2.90
2009,02,09,08,39,2.90
2009,02,09,08,40,3.00
2009,02,09,08,41,3.00
2009,02,09,08,42,3.00
2009,02,09,08,43,3.10
2009,02,09,08,44,3.10
2009,02,09,08,45,3.10
2009,02,09,08,46,3.10
2009,02,09,08,47,3.10
2009,02,09,08,48,3.20
2009,02,09,08,49,3.20
2009,02,09,08,50,3.30
2009,02,09,08,51,3.30
2009,02,09,08,52,3.30
2009,02,09,08,53,3.40
2009,02,09,08,54,3.40
2009,02,09,08,55,3.50
2009,02,09,08,56,3.50
2009,02,09,08,57,3.50
2009,02,09,08,58,3.60
2009,02,09,08,59,3.60
2009,02,09,09,00,3.60
2009,02,09,09,01,3.60
2009,02,09,09,02,3.70
2009,02,09,09,03,3.70
2009,02,09,09,04,3.70
2009,02,09,09,05,3.70
2009,02,09,09,06,3.80
2009,02,09,09,07,3.80
2009,02,09,09,08,3.80
2009,02,09,09,09,3.80
2009,02,09,09,10,3.90
2009,02,09,09,11,3.90
2009,02,09,09,12,3.90
2009,02,09,09,13,4.00
2009,02,09,09,14,4.00
2009,02,09,09,15,4.00
2009,02,09,09,16,4.00
2009,02,09,09,17,4.00
2009,02,09,09,18,4.00
2009,02,09,09,19,4.10
2009,02,09,09,20,4.10
2009,02,09,09,21,4.10
2009,02,09,09,22,4.10
2009,02,09,09,23,4.10
2009,02,09,09,24,4.10
2009,02,09,09,25,4.10
2009,02,09,09,26,4.10
2009,02,09,09,27,4.10
2009,02,09,09,28,4.10
2009,02,09,09,29,4.10
2009,02,09,09,30,4.10
2009,02,09,09,31,4.20
2009,02,09,09,32,4.20
2009,02,09,09,33,4.20
2009,02,09,09,34,4.20
2009,02,09,09,35,4.20
2009,02,09,09,36,4.20
2009,02,09,09,37,4.20
2009,02,09,09,38,4.30
2009,02,09,09,39,4.30
2009,02,09,09,40,4.30
2009,02,09,09,41,4.30
2009,02,09,09,42,4.30
2009,02,09,09,43,4.30
2009,02,09,09,44,4.40
2009,02,09,09,45,4.40
2009,02,09,09,46,4.50
2009,02,09,09,47,4.50
2009,02,09,09,48,4.50
2009,02,09,09,49,4.50
2009,02,09,09,50,4.50
2009,02,09,09,51,4.50
2009,02,09,09,52,4.50
2009,02,09,09,53,4.50
2009,02,09,09,54,4.50
2009,02,09,09,55,4.60
2009,02,09,09,56,4.60
2009,02,09,09,57,4.60
2009,02,09,09,58,4.60
2009,02,09,09,59,4.60
2009,02,09,10,00,4.60
2009,02,09,10,01,4.70
2009,02,09,10,02,4.70
2009,02,09,10,03,4.70
2009,02,09,10,04,4.70
2009,02,09,10,05,4.70
2009,02,09,10,06,4.70
2009,02,09,10,07,4.80
2009,02,09,10,08,4.80
2009,02,09,10,09,4.80
2009,02,09,10,10,4.80
2009,02,09,10,11,4.80
2009,02,09,10,12,4.80
2009,02,09,10,13,4.80
2009,02,09,10,14,4.80
2009,02,09,10,15,4.80
2009,02,09,10,16,4.80
2009,02,09,10,17,4.80
2009,02,09,10,18,4.70
2009,02,09,10,19,4.70
2009,02,09,10,20,4.70
2009,02,09,10,21,4.70
2009,02,09,10,22,4.70
2009,02,09,10,23,4.70
2009,02,09,10,24,4.70
2009,02,09,10,25,4.70
2009,02,09,10,26,4.70
2009,02,09,10,27,4.70
2009,02,09,10,28,4.70
2009,02,09,10,29,4.70
2009,02,09,10,30,4.70
2009,02,09,10,31,4.70
2009,02,09,10,32,4.70
2009,02,09,10,33,4.70
2009,02,09,10,34,4.70
2009,02,09,10,35,4.70
2009,02,09,10,36,4.70
2009,02,09,10,37,4.70
2009,02,09,10,38,4.80
2009,02,09,10,39,4.70
2009,02,09,10,40,4.70
2009,02,09,10,41,4.70
2009,02,09,10,42,4.70
2009,02,09,10,43,4.70
2009,02,09,10,44,4.70
2009,02,09,10,45,4.70
2009,02,09,10,46,4.80
2009,02,09,10,47,4.80
2009,02,09,10,48,4.80
2009,02,09,10,49,4.80
2009,02,09,10,50,4.80
2009,02,09,10,51,4.80
2009,02,09,10,52,4.80
2009,02,09,10,53,4.80
2009,02,09,10,54,4.80
2009,02,09,10,55,4.80
2009,02,09,10,56,4.80
2009,02,09,10,57,4.80
2009,02,09,10,58,4.90
2009,02,09,10,59,4.90
2009,02,09,11,00,4.90
2009,02,09,11,01,4.90
2009,02,09,11,02,5.00
2009,02,09,11,03,5.00
2009,02,09,11,04,5.10
2009,02,09,11,05,5.00
2009,02,09,11,06,5.00
2009,02,09,11,07,5.00
2009,02,09,11,08,5.00
2009,02,09,11,09,5.00
2009,02,09,11,10,5.00
2009,02,09,11,11,5.00
2009,02,09,11,12,5.10
2009,02,09,11,13,5.10
2009,02,09,11,14,5.10
2009,02,09,11,15,5.10
2009,02,09,11,16,5.10
2009,02,09,11,17,5.10
2009,02,09,11,18,5.10
2009,02,09,11,19,5.10
2009,02,09,11,20,5.20
2009,02,09,11,21,5.30
2009,02,09,11,22,5.30
2009,02,09,11,23,5.40
2009,02,09,11,24,5.50
2009,02,09,11,25,5.60
2009,02,09,11,26,5.70
2009,02,09,11,27,5.80
2009,02,09,11,28,5.80
2009,02,09,11,29,5.80
2009,02,09,11,30,5.80
2009,02,09,11,31,5.80
2009,02,09,11,32,5.80
2009,02,09,11,33,5.90
2009,02,09,11,34,5.90
2009,02,09,11,35,6.00
2009,02,09,11,36,6.00
2009,02,09,11,37,6.10
2009,02,09,11,38,6.00
2009,02,09,11,39,6.10
2009,02,09,11,40,6.00
2009,02,09,11,41,6.10
2009,02,09,11,42,6.10
2009,02,09,11,43,6.00
2009,02,09,11,44,6.10
2009,02,09,11,45,6.10
2009,02,09,11,46,6.20
2009,02,09,11,47,6.20
2009,02,09,11,48,6.30
2009,02,09,11,49,6.30
2009,02,09,11,50,6.30
2009,02,09,11,51,6.30
2009,02,09,11,52,6.30
2009,02,09,11,53,6.30
2009,02,09,11,54,6.40
2009,02,09,11,55,6.50
2009,02,09,11,56,6.50
2009,02,09,11,57,6.60
2009,02,09,11,58,6.70
2009,02,09,11,59,6.80
2009,02,09,12,00,6.80
2009,02,09,12,01,6.90
2009,02,09,12,02,7.00
2009,02,09,12,03,7.10
2009,02,09,12,04,7.20
2009,02,09,12,05,7.20
2009,02,09,12,06,7.30
2009,02,09,12,07,7.30
2009,02,09,12,08,7.40
2009,02,09,12,09,7.40
2009,02,09,12,10,7.30
2009,02,09,12,11,7.30
2009,02,09,12,12,7.20
2009,02,09,12,13,7.20
2009,02,09,12,14,7.20
2009,02,09,12,15,7.20
2009,02,09,12,16,7.20
2009,02,09,12,17,7.10
2009,02,09,12,18,7.00
2009,02,09,12,19,6.90
2009,02,09,12,20,6.90
2009,02,09,12,21,6.80
2009,02,09,12,22,6.80
2009,02,09,12,23,6.90
2009,02,09,12,24,6.80
2009,02,09,12,25,6.80
2009,02,09,12,26,6.70
2009,02,09,12,27,6.60
2009,02,09,12,28,6.60
2009,02,09,12,29,6.50
2009,02,09,12,30,6.50
2009,02,09,12,31,6.60
2009,02,09,12,32,6.60
2009,02,09,12,33,6.60
2009,02,09,12,34,6.60
2009,02,09,12,35,6.60
2009,02,09,12,36,6.70
2009,02,09,12,37,6.70
2009,02,09,12,38,6.80
2009,02,09,12,39,6.80
2009,02,09,12,40,6.80
2009,02,09,12,41,6.80
2009,02,09,12,42,6.80
2009,02,09,12,43,6.80
2009,02,09,12,44,6.90
2009,02,09,12,45,7.00
2009,02,09,12,46,7.00
2009,02,09,12,47,7.10
2009,02,09,12,48,7.10
2009,02,09,12,49,7.10
2009,02,09,12,50,7.10
2009,02,09,12,51,7.10
2009,02,09,12,52,7.10
2009,02,09,12,53,7.10
2009,02,09,12,54,7.10
2009,02,09,12,55,7.10
2009,02,09,12,56,7.10
2009,02,09,12,57,7.00
2009,02,09,12,58,6.90
2009,02,09,12,59,6.80
2009,02,09,13,00,6.80
2009,02,09,13,01,6.80
2009,02,09,13,02,6.90
2009,02,09,13,03,6.90
2009,02,09,13,04,6.90
2009,02,09,13,05,6.90
2009,02,09,13,06,6.90
2009,02,09,13,07,6.90
2009,02,09,13,08,6.90
2009,02,09,13,09,6.80
2009,02,09,13,10,6.70
2009,02,09,13,11,6.70
2009,02,09,13,12,6.60
2009,02,09,13,13,6.70
2009,02,09,13,14,6.70
2009,02,09,13,15,6.70
2009,02,09,13,16,6.80
2009,02,09,13,17,6.80
2009,02,09,13,18,6.80
2009,02,09,13,19,6.70
2009,02,09,13,20,6.70
2009,02,09,13,21,6.70
2009,02,09,13,22,6.70
2009,02,09,13,23,6.70
2009,02,09,13,24,6.80
2009,02,09,13,25,6.80
2009,02,09,13,26,6.80
2009,02,09,13,27,6.80
2009,02,09,13,28,6.80
2009,02,09,13,29,6.80
2009,02,09,13,30,6.90
2009,02,09,13,31,7.00
2009,02,09,13,32,7.10
2009,02,09,13,33,7.20
2009,02,09,13,34,7.20
2009,02,09,13,35,7.20
2009,02,09,13,36,7.10
2009,02,09,13,37,7.10
2009,02,09,13,38,7.10
2009,02,09,13,39,7.10
2009,02,09,13,40,7.00
2009,02,09,13,41,7.00
2009,02,09,13,42,7.10
2009,02,09,13,43,7.10
2009,02,09,13,44,7.10
2009,02,09,13,45,7.10
2009,02,09,13,46,7.20
2009,02,09,13,47,7.20
2009,02,09,13,48,7.20
2009,02,09,13,49,7.20
2009,02,09,13,50,7.20
2009,02,09,13,51,7.20
2009,02,09,13,52,7.20
2009,02,09,13,53,7.20
2009,02,09,13,54,7.20
2009,02,09,13,55,7.20
2009,02,09,13,56,7.20
2009,02,09,13,57,7.20
2009,02,09,13,58,7.20
2009,02,09,13,59,7.20
2009,02,09,14,00,7.20
2009,02,09,14,01,7.20
2009,02,09,14,02,7.20
2009,02,09,14,03,7.20
2009,02,09,14,04,7.20
2009,02,09,14,05,7.30
2009,02,09,14,06,7.30
2009,02,09,14,07,7.30
2009,02,09,14,08,7.40
2009,02,09,14,09,7.40
2009,02,09,14,10,7.40
2009,02,09,14,11,7.40
2009,02,09,14,12,7.40
2009,02,09,14,13,7.40
2009,02,09,14,14,7.40
2009,02,09,14,15,7.40
2009,02,09,14,16,7.40
2009,02,09,14,17,7.50
2009,02,09,14,18,7.60
2009,02,09,14,19,7.50
2009,02,09,14,20,7.40
2009,02,09,14,21,7.40
2009,02,09,14,22,7.30
2009,02,09,14,23,7.10
2009,02,09,14,24,7.00
2009,02,09,14,25,6.90
2009,02,09,14,26,6.90
2009,02,09,14,27,6.90
2009,02,09,14,28,7.00
2009,02,09,14,29,7.00
2009,02,09,14,30,7.10
2009,02,09,14,31,7.10
2009,02,09,14,32,7.10
2009,02,09,14,33,7.10
2009,02,09,14,34,7.10
2009,02,09,14,35,7.00
2009,02,09,14,36,6.80
2009,02,09,14,37,6.60
2009,02,09,14,38,6.50
2009,02,09,14,39,6.40
2009,02,09,14,40,6.30
2009,02,09,14,41,6.30
2009,02,09,14,42,6.30
2009,02,09,14,43,6.30
2009,02,09,14,44,6.30
2009,02,09,14,45,6.40
2009,02,09,14,46,6.40
2009,02,09,14,47,6.40
2009,02,09,14,48,6.50
2009,02,09,14,49,6.50
2009,02,09,14,50,6.50
2009,02,09,14,51,6.40
2009,02,09,14,52,6.40
2009,02,09,14,53,6.40
2009,02,09,14,54,6.30
2009,02,09,14,55,6.30
2009,02,09,14,56,6.20
2009,02,09,14,57,6.10
2009,02,09,14,58,6.00
2009,02,09,14,59,5.90
2009,02,09,15,00,5.90
2009,02,09,15,01,5.80
2009,02,09,15,02,5.80
2009,02,09,15,03,5.80
2009,02,09,15,04,5.80
2009,02,09,15,05,5.80
2009,02,09,15,06,5.70
2009,02,09,15,07,5.70
2009,02,09,15,08,5.70
2009,02,09,15,09,5.70
2009,02,09,15,10,5.60
2009,02,09,15,11,5.60
2009,02,09,15,12,5.60
2009,02,09,15,13,5.50
2009,02,09,15,14,5.40
2009,02,09,15,15,5.40
2009,02,09,15,16,5.40
2009,02,09,15,17,5.30
2009,02,09,15,18,5.30
2009,02,09,15,19,5.20
2009,02,09,15,20,5.20
2009,02,09,15,21,5.20
2009,02,09,15,22,5.20
2009,02,09,15,23,5.20
2009,02,09,15,24,5.20
2009,02,09,15,25,5.20
2009,02,09,15,26,5.20
2009,02,09,15,27,5.20
2009,02,09,15,28,5.20
2009,02,09,15,29,5.30
2009,02,09,15,30,5.30
2009,02,09,15,31,5.40
2009,02,09,15,32,5.50
2009,02,09,15,33,5.60
2009,02,09,15,34,5.70
2009,02,09,15,35,5.80
2009,02,09,15,36,5.90
2009,02,09,15,37,6.00
2009,02,09,15,38,6.10
2009,02,09,15,39,6.20
2009,02,09,15,40,6.30
2009,02,09,15,41,6.40
2009,02,09,15,42,6.40
2009,02,09,15,43,6.40
2009,02,09,15,44,6.50
2009,02,09,15,45,6.50
2009,02,09,15,46,6.50
2009,02,09,15,47,6.40
2009,02,09,15,48,6.40
2009,02,09,15,49,6.50
2009,02,09,15,50,6.40
2009,02,09,15,51,6.40
2009,02,09,15,52,6.30
2009,02,09,15,53,6.30
2009,02,09,15,54,6.20
2009,02,09,15,55,6.20
2009,02,09,15,56,6.10
2009,02,09,15,57,6.00
2009,02,09,15,58,5.90
2009,02,09,15,59,5.80
2009,02,09,16,00,5.70
2009,02,09,16,01,5.60
2009,02,09,16,02,5.60
2009,02,09,16,03,5.50
2009,02,09,16,04,5.40
2009,02,09,16,05,5.40
2009,02,09,16,06,5.40
2009,02,09,16,07,5.40
2009,02,09,16,08,5.30
2009,02,09,16,09,5.30
2009,02,09,16,10,5.30
2009,02,09,16,11,5.20
2009,02,09,16,12,5.20
2009,02,09,16,13,5.20
2009,02,09,16,14,5.10
2009,02,09,16,15,5.10
2009,02,09,16,16,5.10
2009,02,09,16,17,5.00
2009,02,09,16,18,5.00
2009,02,09,16,19,5.00
2009,02,09,16,20,4.90
2009,02,09,16,21,4.90
2009,02,09,16,22,4.90
2009,02,09,16,23,4.80
2009,02,09,16,24,4.80
2009,02,09,16,25,4.80
2009,02,09,16,26,4.70
2009,02,09,16,27,4.60
2009,02,09,16,28,4.50
2009,02,09,16,29,4.40
2009,02,09,16,30,4.40
2009,02,09,16,31,4.40
2009,02,09,16,32,4.30
2009,02,09,16,33,4.30
2009,02,09,16,34,4.20
2009,02,09,16,35,4.20
2009,02,09,16,36,4.20
2009,02,09,16,37,4.10
2009,02,09,16,38,4.10
2009,02,09,16,39,4.10
2009,02,09,16,40,4.10
2009,02,09,16,41,4.10
2009,02,09,16,42,4.10
2009,02,09,16,43,4.00
2009,02,09,16,44,4.00
2009,02,09,16,45,4.00
2009,02,09,16,46,4.00
2009,02,09,16,47,4.00
2009,02,09,16,48,4.00
2009,02,09,16,49,4.00
2009,02,09,16,50,4.00
2009,02,09,16,51,4.00
2009,02,09,16,52,4.00
2009,02,09,16,53,3.90
2009,02,09,16,54,3.90
2009,02,09,16,55,3.90
2009,02,09,16,56,3.90
2009,02,09,16,57,3.90
2009,02,09,16,58,3.90
2009,02,09,16,59,3.80
2009,02,09,17,00,3.80
2009,02,09,17,01,3.80
2009,02,09,17,02,3.70
2009,02,09,17,03,3.70
2009,02,09,17,04,3.60
2009,02,09,17,05,3.50
2009,02,09,17,06,3.40
2009,02,09,17,07,3.40
2009,02,09,17,08,3.40
2009,02,09,17,09,3.40
2009,02,09,17,10,3.30
2009,02,09,17,11,3.30
2009,02,09,17,12,3.30
2009,02,09,17,13,3.30
2009,02,09,17,14,3.30
2009,02,09,17,15,3.30
2009,02,09,17,16,3.30
2009,02,09,17,17,3.30
2009,02,09,17,18,3.30
2009,02,09,17,19,3.30
2009,02,09,17,20,3.30
2009,02,09,17,21,3.30
2009,02,09,17,22,3.30
2009,02,09,17,23,3.30
2009,02,09,17,24,3.20
2009,02,09,17,25,3.20
2009,02,09,17,26,3.20
2009,02,09,17,27,3.20
2009,02,09,17,28,3.20
2009,02,09,17,29,3.20
2009,02,09,17,30,3.10
2009,02,09,17,31,3.10
2009,02,09,17,32,3.00
2009,02,09,17,33,2.90
2009,02,09,17,34,2.90
2009,02,09,17,35,2.80
2009,02,09,17,36,2.80
2009,02,09,17,37,2.70
2009,02,09,17,38,2.70
2009,02,09,17,39,2.60
2009,02,09,17,40,2.50
2009,02,09,17,41,2.50
2009,02,09,17,42,2.40
2009,02,09,17,43,2.40
2009,02,09,17,44,2.40
2009,02,09,17,45,2.30
2009,02,09,17,46,2.30
2009,02,09,17,47,2.20
2009,02,09,17,48,2.20
2009,02,09,17,49,2.10
2009,02,09,17,50,2.10
2009,02,09,17,51,2.00
2009,02,09,17,52,2.00
2009,02,09,17,53,1.90
2009,02,09,17,54,1.90
2009,02,09,17,55,1.80
2009,02,09,17,56,1.80
2009,02,09,17,57,1.70
2009,02,09,17,58,1.70
2009,02,09,17,59,1.70
2009,02,09,18,00,1.60
2009,02,09,18,01,1.60
2009,02,09,18,02,1.50
2009,02,09,18,03,1.40
2009,02,09,18,04,1.40
2009,02,09,18,05,1.30
2009,02,09,18,06,1.30
2009,02,09,18,07,1.30
2009,02,09,18,08,1.30
2009,02,09,18,09,1.30
2009,02,09,18,10,1.20
2009,02,09,18,11,1.20
2009,02,09,18,12,1.20
2009,02,09,18,13,1.20
2009,02,09,18,14,1.10
2009,02,09,18,15,1.10
2009,02,09,18,16,1.10
2009,02,09,18,17,1.10
2009,02,09,18,18,1.10
2009,02,09,18,19,0.90
2009,02,09,18,20,0.90
2009,02,09,18,21,0.90
2009,02,09,18,22,0.80
2009,02,09,18,23,0.80
2009,02,09,18,24,0.80
2009,02,09,18,25,0.70